Location: 5810 Zion Rd, Cleves, OH 45002, USA
(39.1922°N, 84.7113°W)
Time: 03:10:49
(UTC-05:00)

Courier 1B Rocket - All Passes

Search period start: 06 December 2019 00:00
Search period end: 16 December 2019 00:00
Orbit: 920 x 1202 km, 28.2° (Epoch: 05 December)

Date Brightness Start Highest point End Pass type
(mag) Time Alt. Az. Time Alt. Az. Time Alt. Az.
06 Dec - 07:00:02 10° S 07:02:33 12° SSE 07:05:00 10° SE visible
06 Dec - 08:49:58 10° SW 08:55:05 25° SSE 09:00:02 10° ESE daylight
06 Dec - 10:42:22 10° WSW 10:47:44 30° S 10:53:03 10° ESE daylight
06 Dec - 12:35:45 10° WSW 12:40:20 22° SSW 12:44:58 10° SSE daylight
07 Dec - 07:49:30 10° SSW 07:54:18 21° SSE 07:58:57 10° ESE daylight
07 Dec - 09:41:30 10° WSW 09:46:57 30° S 09:52:17 10° ESE daylight
07 Dec - 11:34:36 10° WSW 11:39:36 25° SSW 11:44:36 10° SE daylight
07 Dec - 13:29:34 10° SW 13:32:04 12° SSW 13:34:34 10° S daylight
08 Dec - 06:49:17 10° SSW 06:53:32 18° SSE 06:57:38 10° ESE visible
08 Dec - 08:40:41 10° SW 08:46:10 29° S 08:51:27 10° ESE daylight
08 Dec - 10:33:32 10° WSW 10:38:51 28° S 10:44:04 10° SE daylight
08 Dec - 12:27:34 10° WSW 12:31:22 17° SSW 12:35:11 10° SSE daylight
09 Dec - 05:49:34 10° S 05:52:45 14° SSE 05:55:50 10° SE visible
09 Dec - 07:39:57 10° SW 07:45:22 26° S 07:50:33 10° ESE daylight
09 Dec - 09:32:31 10° WSW 09:38:04 30° S 09:43:27 10° ESE daylight
09 Dec - 11:26:05 10° WSW 11:30:40 21° SSW 11:35:12 10° SSE daylight
10 Dec - 06:39:21 10° SW 06:44:33 23° SSE 06:49:30 10° ESE visible
10 Dec - 08:31:33 10° WSW 08:37:16 31° S 08:42:45 10° ESE daylight
10 Dec - 10:24:49 10° WSW 10:29:57 25° SSW 10:34:56 10° SE daylight
10 Dec - 12:20:07 10° SW 12:22:22 12° SSW 12:24:36 10° S daylight
11 Dec - 05:38:59 10° SSW 05:43:43 19° SSE 05:48:15 10° ESE visible
11 Dec - 07:30:38 10° SW 07:36:27 30° S 07:41:58 10° ESE daylight
11 Dec - 09:23:38 10° WSW 09:29:11 29° S 09:34:30 10° SE daylight
11 Dec - 11:17:52 10° WSW 11:21:41 17° SSW 11:25:27 10° SSE daylight
12 Dec - 04:39:02 10° S 04:42:52 15° SSE 04:46:35 10° SE visible
12 Dec - 06:29:47 10° SW 06:35:35 28° S 06:41:04 10° ESE visible
12 Dec - 08:22:31 10° WSW 08:28:22 31° S 08:33:55 10° ESE daylight
12 Dec - 10:16:15 10° WSW 10:20:59 21° SSW 10:25:35 10° SSE daylight
13 Dec - 03:40:15 10° SSE 03:42:01 11° SSE 03:43:46 10° SE visible
13 Dec - 05:29:05 10° SW 05:34:42 24° SSE 05:40:02 10° ESE visible
13 Dec - 07:21:27 10° WSW 07:27:31 32° S 07:33:14 10° ESE visible
13 Dec - 09:14:52 10° WSW 09:20:15 26° SSW 09:25:22 10° SE daylight
13 Dec - 11:10:22 10° SW 11:12:40 12° SSW 11:14:55 10° S daylight
14 Dec - 04:28:37 10° SSW 04:33:48 21° SSE 04:38:47 10° ESE visible
14 Dec - 06:20:25 10° SW 06:26:38 32° S 06:32:27 10° ESE visible
14 Dec - 08:13:35 10° WSW 08:19:26 30° S 08:24:58 10° SE daylight
14 Dec - 10:07:58 10° WSW 10:11:58 17° SSW 10:15:52 10° SSE daylight
15 Dec - 03:28:33 10° SSW 03:32:54 16° SSE 03:37:08 10° ESE visible
15 Dec - 05:19:30 10° SW 05:25:41 29° S 05:31:33 10° ESE visible
15 Dec - 07:12:23 10° WSW 07:18:34 33° S 07:24:24 10° ESE visible
15 Dec - 09:06:14 10° WSW 09:11:15 22° SSW 09:16:03 10° SSE daylight
